Simultaneous Nadir Overpasses (SNOs) Predictions

Prediction of SNOs between METOP-B and NOAA-19 Satellite Orbit:

Table of predicted SNOs for the next 14.0 days since TLE Epoch: 7/31/2020
Index Date (METOP-B) Time (METOP-B) Lat,Lon (METOP-B) SZA (METOP-B ) Date (NOAA-19) Time (NOAA-19) Lat,Lon (NOAA-19) SZA (NOAA-19 ) Distance(km) Time Diff (sec)
1 08/04/2020 21:17:05 -80.12, 64.11 116.10 08/04/2020 21:15:50 -80.14, 63.78 116.13 6.55 75
2 08/04/2020 22:07:46 80.12,-128.66 63.90 08/04/2020 22:06:46 80.11,-128.50 63.88 3.25 60
3 08/04/2020 22:58:27 -80.11, 38.64 116.10 08/04/2020 22:57:49 -80.10, 38.77 116.11 2.73 38
4 08/04/2020 23:49:08 80.10,-154.14 63.89 08/04/2020 23:48:47 80.12,-154.14 63.90 1.54 21
5 08/05/2020 00:39:49 -80.10, 13.16 116.11 08/05/2020 00:39:50 -80.11, 13.12 116.09 1.80 1
6 08/05/2020 01:30:29 80.12,-179.31 63.94 08/05/2020 01:30:47 80.10,-179.46 63.92 3.31 18
7 08/05/2020 02:21:11 -80.09, -12.32 116.11 08/05/2020 02:21:50 -80.10, -12.20 116.07 2.81 39
8 08/05/2020 03:11:51 80.10, 155.21 63.94 08/05/2020 03:12:47 80.09, 155.21 63.94 1.49 56
